Terminal Aerodrome Forecast
Issued by NWS

Home | Current Version | Previous Version | Text Only | Print | Product List | Glossary On
Versions: 1 2 3 4 5 6 7 8 9 10 11 12 13 14
000
FTUS45 KTFX 010800 AAA
TAFLWT
TAF AMD
KLWT 010820Z 0108/0206 VRB05KT P6SM BKN015
     FM011500 15004KT P6SM SCT015
     FM011700 15005KT P6SM BKN250
     FM020200 21010KT P6SM VCSH SCT025 OVC040=

USA.gov is the U.S. government's official web portal to all federal, state and local government web resources and services.